Date,TemperatureHighF,TemperatureAvgF,TemperatureLowF,DewpointHighF,DewpointAvgF,DewpointLowF,HumidityHigh,HumidityAvg,HumidityLow,PressureMaxIn,PressureMinIn,WindSpeedMaxMPH,WindSpeedAvgMPH,GustSpeedMaxMPH,PrecipitationSumIn
2013-2-1,9.4,-1.2,-12.1,6.6,-7.0,-16.5,89,76,61,30.36,30.07,14,3,14,0.00
2013-2-2,13.6,8.1,2.3,9.2,3.5,-1.2,89,81,63,30.20,29.98,6,1,6,0.00
2013-2-3,13.8,10.6,3.6,9.8,6.3,-0.0,89,83,69,30.11,29.96,11,2,11,0.00
2013-2-4,20.0,9.2,-8.8,13.5,3.3,-12.1,91,78,51,30.08,29.78,12,1,13,0.00
2013-2-5,30.3,19.6,-7.8,27.4,16.0,-11.1,96,86,67,30.08,29.67,14,2,14,0.00
2013-2-6,30.1,14.5,-8.5,24.4,11.3,-11.9,93,87,78,30.12,29.93,14,3,14,0.00
2013-2-7,27.0,25.4,20.5,24.8,22.8,18.8,95,90,83,30.23,29.97,11,1,11,0.00
2013-2-8,27.5,23.9,22.2,22.5,19.5,17.4,88,83,70,30.35,30.21,11,2,11,0.00
2013-2-9,32.9,28.7,25.4,29.4,25.9,22.4,94,89,85,30.21,29.90,16,5,16,0.00
2013-2-10,34.3,31.4,28.5,33.8,30.3,26.2,98,96,91,29.90,29.22,19,6,19,0.09
2013-2-11,30.8,24.3,14.4,30.0,21.3,11.0,98,89,81,30.03,29.30,11,4,13,0.00
2013-2-12,36.2,23.7,11.9,30.6,19.6,9.0,93,84,70,30.04,29.80,12,4,15,0.02
2013-2-13,37.7,27.7,15.0,36.0,25.3,12.9,97,91,80,29.80,29.53,7,2,9,0.19
2013-2-14,31.7,23.9,8.4,29.3,18.4,2.9,98,80,59,30.16,29.69,11,2,13,0.00
2013-2-15,17.4,7.6,-5.5,7.6,1.9,-8.4,89,78,63,30.31,30.16,10,2,11,0.00
2013-2-16,22.1,6.0,-7.9,10.1,0.6,-10.9,90,79,58,30.28,30.13,6,1,6,0.00
2013-2-17,32.7,21.9,5.9,25.2,16.4,2.9,90,79,67,30.14,29.60,20,6,20,0.00
2013-2-18,33.6,22.9,4.6,31.8,18.9,1.8,93,84,78,29.79,29.50,15,5,17,0.00
2013-2-19,5.3,1.5,-7.4,2.5,-3.7,-12.0,88,78,66,30.40,29.80,16,5,16,0.00
2013-2-20,17.3,0.9,-17.9,5.9,-5.2,-22.0,85,76,58,30.50,30.40,7,1,7,0.00
2013-2-21,21.3,12.4,-4.8,14.0,6.5,-8.1,89,77,65,30.46,30.05,11,3,12,0.00
2013-2-22,32.6,23.3,18.0,25.4,20.1,14.0,95,88,67,30.05,29.84,11,2,13,0.03
2013-2-23,25.7,19.0,16.3,21.7,16.5,14.1,93,90,82,29.87,29.84,8,4,8,0.00
2013-2-24,27.0,21.6,15.6,22.0,17.8,11.4,89,85,73,30.11,30.08,1,0,2,0.06
2013-2-25,40.6,26.2,8.4,29.6,21.4,6.1,94,83,60,30.10,30.00,4,0,4,0.03
2013-2-26,39.1,25.6,4.6,29.6,20.9,2.1,95,83,66,30.03,29.84,9,1,10,0.01
2013-2-27,39.7,32.0,26.3,27.8,25.6,22.7,87,78,58,29.99,29.83,15,2,15,0.00
2013-2-28,32.4,28.3,24.1,24.0,21.8,18.2,87,77,68,30.18,29.99,9,1,9,0.00